www.pogodaiklimat.ru

Погода и климат >> Архив погоды >> Австралия >> Квинсленд >> Фосфат-Хилл


ПОГОДА в Фосфат-Хилл

  • Прогноз погоды в Фосфат-Хилл
  • Монитор погоды в Фосфат-Хилл

АРХИВ ПОГОДЫ в Фосфат-Хилл

Время (UTC), дата Ветер
(напр.,м/с)
 
Видим.   Явления Облачность Т
(С)
Тd
(С)
f
(%)
Тe
(С)
Тes
(С)
Комфортность P
(гПа)
Po
(гПа)
Тmin
(С)
Tmax
(С)
R
(мм)
R24
(мм)
S
(см)
05 12.02 Ю 5 н/о н/о +38.7 +4.2 12 +36 +36 очень
жарко
1004.8 973.0
08 12.02 З 3 н/о н/о +38.6 +4.1 12 +36 +36 очень
жарко
1004.1 972.3
11 12.02 СВ 3 н/о н/о +30.1 +11.1 31 +30 +30 жарко 1005.3 973.4
14 12.02 С 3 н/о н/о +26.3 +11.2 39 +27 +27 жарко 1005.2 973.3 +39.7
17 12.02 С 4 н/о н/о +28.9 +7.5 26 +28 +28 жарко 1003.8 972.0
20 12.02 С 4 н/о н/о +26.3 +16.3 54 +30 +30 душно 1005.8 973.9
23 12.02 СЗ 7 н/о н/о +30.8 +17.5 45 +35 +35 очень
душно
1008.6 976.6
02 13.02 Ю 7 н/о н/о +34.7 +9.9 22 +34 +34 очень
жарко
1008.5 976.5 +25.1
05 13.02 Ю 7 н/о н/о +36.7 +10.1 20 +35 +35 очень
жарко
1006.7 974.8
08 13.02 Ю 6 н/о н/о +35.5 +8.3 19 +34 +34 очень
жарко
1006.6 974.7
11 13.02 Ю 6 н/о 10/10 600 м
[]
+30.4 +7.6 24 +29 +29 жарко 1008.9 976.9
14 13.02 Ю 6 н/о 1/1 1000 м
[]
+27.1 +7.0 28 +27 +27 жарко 1009.7 977.7 +37.6
17 13.02 Ю 5 н/о н/о +24.2 +6.9 33 +24 +24 комфорт 1009.5 977.5
20 13.02 Ю 5 н/о н/о +21.5 +2.2 28 +21 +21 комфорт 1011.5 979.4
23 13.02 Ю 6 н/о н/о +24.4 +4.2 27 +24 +24 комфорт 1012.6 980.5
02 14.02 Ю 6 н/о н/о +30.1 +4.7 20 +28 +28 жарко 1012.0 979.9 +20.6
05 14.02 Ю 5 н/о н/о +32.6 +5.2 18 +30 +30 жарко 1010.1 978.1
08 14.02 Ю 5 н/о н/о +32.0 +3.9 17 +30 +30 жарко 1009.6 977.6
11 14.02 Ю 4 н/о н/о +26.1 +4.6 25 +25 +25 комфорт 1012.0 979.9
14 14.02 Ю 3 н/о н/о +23.1 +4.6 30 +23 +23 комфорт 1012.7 980.6 +33.6
17 14.02 ЮЗ 3 н/о н/о +20.2 +6.2 40 +21 +21 комфорт 1011.7 979.6
20 14.02 штиль 0 н/о н/о +16.9 +8.6 58 +17 +17 1012.4 980.3
23 14.02 Ю 4 н/о н/о +25.2 +4.3 26 +25 +25 комфорт 1013.6 981.5
02 15.02 Ю 3 н/о н/о +31.7 +2.8 16 +29 +29 жарко 1012.9 980.8 +16.8
05 15.02 ЮВ 3 н/о н/о +34.1 +1.8 13 +31 +31 жарко 1010.6 978.6
08 15.02 Ю 5 н/о н/о +33.5 +2.4 14 +30 +30 жарко 1009.8 977.8
11 15.02 Ю 2 н/о н/о +26.5 +6.0 27 +26 +26 жарко 1011.4 979.3
14 15.02 ЮЗ 3 н/о н/о +23.5 +9.1 40 +24 +24 комфорт 1012.4 980.3 +35.3
17 15.02 Ю 1 н/о н/о +21.2 +5.6 36 +22 +22 комфорт 1010.9 978.9
20 15.02 С 1 н/о н/о +17.9 +9.0 56 +20 +20 1011.5 979.4
02 16.02 ЮВ 3 н/о н/о +33.5 +0.2 12 +30 +30 жарко 1011.6 979.5 +17.7
05 16.02 СЗ 4 н/о н/о +36.3 +1.2 11 +33 +33 жарко 1008.8 976.8
08 16.02 З 3 н/о н/о +36.0 +0.9 11 +32 +32 жарко 1007.6 975.7
11 16.02 В 2 н/о н/о +27.2 +8.6 31 +27 +27 жарко 1009.2 977.2
14 16.02 С 1 н/о н/о +24.8 +9.1 37 +25 +25 комфорт 1009.3 977.3
17 16.02 С 2 н/о н/о +21.8 +10.6 49 +24 +24 комфорт 1008.2 976.2
20 16.02 СЗ 3 н/о н/о +21.7 +8.9 44 +23 +23 комфорт 1008.8 976.8
23 16.02 С 2 н/о н/о +32.5 +6.7 20 +31 +31 жарко 1010.1 978.1
02 17.02 С 4 н/о н/о +37.6 +3.4 12 +34 +34 очень
жарко
1009.1 977.1
05 17.02 С 3 н/о н/о +37.9 +1.0 10 +34 +34 очень
жарко
1006.3 974.4
08 17.02 ЮЗ 3 н/о н/о +37.2 +1.8 11 +34 +34 очень
жарко
1005.2 973.3
14 17.02 СВ 3 н/о н/о +26.5 +7.5 30 +26 +26 жарко 1007.4 975.5
20 17.02 С 4 н/о н/о +24.5 +10.4 41 +26 +26 жарко 1007.1 975.2
23 17.02 СЗ 7 н/о н/о +31.6 +18.2 45 +36 +36 очень
душно
1009.1 977.1
02 18.02 З 4 н/о н/о +36.6 +10.0 20 +35 +35 очень
жарко
1008.3 976.3
05 18.02 СВ 2 н/о н/о +38.4 +9.0 17 +37 +37 очень
жарко
1005.7 973.8
08 18.02 ЮЗ 1 н/о н/о +38.1 +7.0 15 +36 +36 очень
жарко
1005.0 973.1
11 18.02 СВ 2 н/о н/о +31.0 +12.4 32 +32 +32 жарко 1006.7 974.8
14 18.02 СВ 1 н/о н/о +28.3 +13.8 41 +30 +30 жарко 1007.0 975.1
17 18.02 С 3 н/о н/о +26.3 +14.4 48 +29 +29 жарко 1006.0 974.1
20 18.02 СЗ 4 н/о н/о +27.9 +16.5 50 +31 +31 душно 1007.1 975.2
23 18.02 СЗ 8 н/о н/о +32.5 +19.0 45 +38 +38 очень
душно
1009.2 977.2
02 19.02 СЗ 6 н/о н/о +38.6 +16.8 28 +41 +41 опасность
перегрева
1008.3 976.3 +25.9

 

Местоположение метеостанции Фосфат-Хилл (Квинсленд, Австралия): широта -21.80 долгота 139.92 высота над уровнем моря 289 м.

В архиве по умолчанию представлена погода в Фосфат-Хилл за последнюю неделю. Архивные данные за месяц целиком и за предыдущие месяцы, начиная с января 2011 года, Вы можете получить, выбрав интересующий диапазон дат из раскрывающегося списка и нажав кнопку "Ввод!".


*Определитесь, кто Вы:
робот инопланетянин человек

Внимание! Время в таблицах - всемирное. Для получения местного времени необходимо прибавить поправку, которая равна 10 ч.

Смотрите также архив погоды в соседних городах и на ближайших метеорологических станциях:

Погода в Аэропорту Трепелл (Квинсленд, Австралия) (99 км)
Погода на Маунт-Айза (Квинсленд, Австралия) (133 км)
Погода в Клонкарри (Квинсленд, Австралия) (139 км)
Погода в Нью Мэй Даун (Квинсленд, Австралия) (147 км)
Погода на Озере Джулиус (Квинсленд, Австралия) (188 км)
Погода в Джулия Крик (Квинсленд, Австралия) (226 км)
Погода в Камоауиле (Квинсленд, Австралия) (282 км)
Погода в Уинтоне (Квинсленд, Австралия) (332 км)
Погода в Ричмонде (Квинсленд, Австралия) (353 км)
Погода на Руднике Century Mine (Квинсленд, Австралия) (362 км)

Пояснения к столбцам:

Ветер - указаны скорость ветра в м/с - средняя за 10 мин, порывы в срок и между сроками (в фигурных скобках) и направление, откуда дует ветер: С - северный, СВ - северо-восточный, В - восточный, ЮВ - юго-восточный, Ю - южный, ЮЗ - юго-западный, З - западный, СЗ - северо-западный.
Видимость - горизонтальная дальность видимости в метрах или километрах. При видимости от 1 до 10 км при отсутствии осадков обычно наблюдается дымка, при ухудшении видимости до 1 км и менее - туман. В сухую погоду видимость может ухудшаться дымом, пылью или мглою.
Явления - указаны атмосферные явления, наблюдавшиеся в срок или в последний час перед сроком; фигурными скобками обозначены явления, наблюдавшиеся между сроками (за 1-3 часа до срока); квадратными скобками обозначены град или гололедные отложения с указанием их диаметра в мм.
Облачность - указаны через наклонную черту общая и нижняя облачность в баллах и высота нижней границы облаков в метрах; квадратными скобками обозначены формы облаков: Ci - перистые, Cs - перисто-слоистые, Cc - перисто-кучевые, Ac - высококучевые, As - высокослоистые, Sc - слоисто-кучевые, Ns - слоисто-дождевые, Cu - кучевые, Cb - кучево-дождевые. Подробнее классификацию облаков см. в Атласе облаков (PDF).
T - Температура воздуха - температура, измеренная на высоте 2 м над землей.
Td - Температура точки росы - температура, при понижении до которой содержащийся в воздухе водяной пар достигнет насыщения.
f - Относительная влажность воздуха - влажноcть воздуха, измеренная на высоте 2 м над землей.
Te - Эффективная температура - температура, которую ощущает одетый по сезону человек в тени. Характеристика душности погоды. При расчете учитывается влияние влажности воздуха и скорости ветра на теплоощущения человека.
Tes - Эффективная температура на солнце - температура, которую ощущает человек, с поправкой на солнечный нагрев. Характеристика знойности погоды. Зависит от высоты солнца над горизонтом, облачности и скорости ветра. Ночью, в пасмурную погоду, а также при ветре 12 м/с и более поправка равна нулю.
P - Атмосферное давление - приведенное к уровню моря атмосферное давление.
Po - Атмосферное давление - измеренное на уровне метеостанции атмосферное давление.
Tmin - Минимальная температура - минимум температуры воздуха на высоте 2 м над землей.
Tmax - Максимальная температура - максимум температуры воздуха на высоте 2 м над землей.
R - Количество осадков - Количество выпавших осадков за период времени, мм. При наведении курсора мыши на число - период времени, за который выпало указанное количество осадков.
R24 - Количество осадков - Количество выпавших осадков за 24 часа, мм.
S - Снежный покров - Высота снежного покрова, см. При наведении курсора мыши на число - состояние снежного покрова и степень покрытия местности в баллах.